Simultaneous Nadir Overpasses (SNOs) Predictions

Prediction of SNOs between GOES-16 and METOP-A Satellite Orbit:

Table of predicted SNOs for the next 14.0 days since TLE Epoch: 9/11/2021
Index Date Time (GOES-16) GOES-16 Lat,Lon METOP-A Lat,Lon Distance(km) Time Diff (sec)
1 09/12/2021 00:49:41 -0.02, -75.18 0.39, -73.26 218.86 80
2 09/13/2021 13:11:12 0.03, -75.18 0.63, -77.85 304.89 80
3 09/14/2021 12:47:51 0.03, -75.17 -0.46, -72.87 260.95 80
4 09/16/2021 01:09:30 -0.04, -75.14 -0.57, -77.51 269.72 80
5 09/17/2021 00:46:10 -0.03, -75.13 0.52, -72.53 296.41 80
6 09/18/2021 13:07:40 0.05, -75.14 0.50, -77.12 226.32 80
7 09/19/2021 12:44:21 0.03, -75.14 -0.65, -72.16 340.48 80
8 09/21/2021 01:05:59 -0.05, -75.13 -0.43, -76.78 188.38 80
9 09/22/2021 00:42:40 -0.04, -75.13 0.72, -71.81 378.92 80
10 09/23/2021 13:04:10 0.05, -75.16 0.31, -76.41 142.26 80
11 09/24/2021 12:40:49 0.04, -75.16 -0.78, -71.43 425.44 80
